Location: Silent Lake
(44.9206°N, 78.0708°W)
Time: 08:53:50
(UTC-04:00)

Cosmos 1933 - Pass Details

Date: 19 April 2018
Orbit: 548 x 564 km, 82.5° (Epoch: 24 May)

Event Time Altitude Azimuth Distance (km) Brightness Sun altitude
Exits shadow 22:59:57 42° 11° (N) 800 4.3 -26.3°
Drops below altitude 10° 23:02:44 10° 9° (N) 1,857 6.5 -26.6°
Sets 23:04:56 0° 9° (N) 2,760 7.5 -26.8°
